Weather History for KOVE - April, 2013

Change the Weather History Date:

Thursday, April 4, 2013

  Actual Average Record
Temperature  
Mean Temperature 58 °F -  
Max Temperature 64 °F 71 °F 87 °F (1966)
Min Temperature 53 °F 45 °F 35 °F (2001)
Degree Days  
Heating Degree Days 7    
Growing Degree Days 8 (Base 50)    
Moisture  
Dew Point 54 °F    
Average Humidity 88    
Maximum Humidity 97    
Minimum Humidity 62    
Precipitation  
Precipitation 0.48 in - - ()
Sea Level Pressure  
Sea Level Pressure 30.06 in    
Wind  
Wind Speed 10 mph (SE)    
Max Wind Speed 15 mph    
Max Gust Speed -    
Visibility 9 miles    
Events Rain    
Averages and records for this station are not official NWS values.
T = Trace of Precipitation, MM = Missing Value Source: NWS Daily Summary

Daily Weather History Graph

Daily Weather History Graph

Search for Another Location

Airport or City:

Trip Planner

Search our weather history database for the weather conditions in past years. The results will help you decide how hot, cold, wet, or windy it might be!

Date:

Astronomy

Apr. 04, 2013 Rise Set
Actual Time 6:45 AM PDT 7:33 PM PDT
Civil Twilight 6:18 AM PDT 8:01 PM PDT
Nautical Twilight 5:46 AM PDT 8:33 PM PDT
Astronomical Twilight 5:12 AM PDT 9:06 PM PDT
Moon 3:14 AM PDT (4/4) 1:59 PM PDT (4/4)
Length of Visible Light 13h 42m
Length of Day
12h 48m
Waning Crescent, 32% of the Moon is Illuminated
Apr 4
Waning Crescent
Apr 10
New
Apr 18
First Quarter
Apr 25
Full
May 2
Last Quarter

Hourly Weather History & Observations

Time (PDT) Temp. Dew Point Humidity Pressure Visibility Wind Dir Wind Speed Gust Speed Precip Events Conditions
12:53 AM 59.0 °F 54.0 °F 83% 29.98 in 10.0 mi SE 4.6 mph - N/A   Partly Cloudy
1:53 AM 59.0 °F 54.0 °F 83% 29.98 in 10.0 mi SE 4.6 mph - N/A   Partly Cloudy
2:53 AM 61.0 °F 54.0 °F 78% 29.96 in 10.0 mi East 8.1 mph - N/A   Partly Cloudy
3:53 AM 61.0 °F 54.0 °F 78% 29.96 in 10.0 mi SSE 9.2 mph - N/A   Mostly Cloudy
4:53 AM 60.1 °F 53.1 °F 78% 29.96 in 10.0 mi SSE 11.5 mph - N/A   Mostly Cloudy
5:53 AM 59.0 °F 46.0 °F 62% 29.99 in 10.0 mi South 15.0 mph - N/A   Overcast
6:53 AM 54.0 °F 50.0 °F 86% 30.04 in 10.0 mi SE 12.7 mph - 0.01 in Rain Light Rain
7:53 AM 53.1 °F 51.1 °F 93% 30.08 in 9.0 mi ESE 10.4 mph - 0.07 in Rain Light Rain
8:07 AM 53.1 °F 51.1 °F 93% 30.07 in 7.0 mi ESE 15.0 mph - 0.03 in Rain Rain
8:20 AM 53.1 °F 51.1 °F 93% 30.05 in 8.0 mi East 15.0 mph - 0.07 in Rain Rain
8:53 AM 53.1 °F 51.1 °F 93% 30.09 in 4.0 mi SSW 6.9 mph - 0.16 in Rain Rain
8:56 AM 53.1 °F 51.1 °F 93% 30.08 in 1.8 mi SSW 6.9 mph - 0.07 in Rain Heavy Rain
9:06 AM 53.1 °F 52.0 °F 96% 30.07 in 3.0 mi SE 6.9 mph - 0.11 in Rain Rain
9:53 AM 54.0 °F 53.1 °F 97% 30.09 in 4.0 mi SE 12.7 mph - 0.21 in Rain Light Rain
10:53 AM 54.0 °F 53.1 °F 97% 30.10 in 10.0 mi SE 15.0 mph - 0.01 in Rain Light Rain
11:53 AM 55.9 °F 54.0 °F 93% 30.11 in 9.0 mi SE 12.7 mph - 0.02 in Rain Light Rain
12:09 PM 57.0 °F 55.0 °F 93% 30.10 in 10.0 mi SE 12.7 mph - 0.00 in Rain Light Rain
12:39 PM 57.9 °F 55.9 °F 93% 30.09 in 10.0 mi SE 11.5 mph - 0.00 in Rain Light Rain
12:53 PM 57.9 °F 55.9 °F 93% 30.10 in 10.0 mi SSE 15.0 mph - 0.00 in Rain Light Rain
1:53 PM 59.0 °F 57.0 °F 93% 30.09 in 10.0 mi SSE 15.0 mph - 0.00 in   Overcast
2:04 PM 59.0 °F 57.0 °F 93% 30.09 in 10.0 mi SSE 11.5 mph - N/A   Overcast
2:53 PM 60.1 °F 57.0 °F 90% 30.08 in 10.0 mi SSE 12.7 mph - N/A   Overcast
3:43 PM 62.1 °F 57.9 °F 86% 30.07 in 10.0 mi SE 10.4 mph - N/A   Overcast
3:53 PM 62.1 °F 57.0 °F 84% 30.08 in 10.0 mi SSE 13.8 mph - N/A   Overcast
4:53 PM 63.0 °F 57.0 °F 81% 30.06 in 10.0 mi SE 11.5 mph - N/A   Mostly Cloudy
5:53 PM 63.0 °F 55.9 °F 78% 30.05 in 10.0 mi SSE 12.7 mph - N/A   Overcast
6:53 PM 63.0 °F 57.0 °F 81% 30.04 in 10.0 mi SSE 11.5 mph - N/A   Scattered Clouds
7:53 PM 60.1 °F 55.9 °F 86% 30.05 in 10.0 mi SSE 8.1 mph - N/A   Clear
8:53 PM 57.9 °F 55.0 °F 90% 30.07 in 10.0 mi SE 5.8 mph - N/A   Scattered Clouds
9:53 PM 57.0 °F 54.0 °F 89% 30.09 in 10.0 mi SE 8.1 mph - N/A   Clear
10:53 PM 57.0 °F 53.1 °F 87% 30.09 in 10.0 mi SE 10.4 mph - N/A   Scattered Clouds
11:53 PM 55.9 °F 53.1 °F 90% 30.11 in 10.0 mi SE 9.2 mph - N/A   Clear